DW9711 Weather Reports


Display with metric or nautical units.
time (UTC)temp
F
wind
direction
speed
MPH
gust
MPH
rain 1hr
in
rain 24hr
in
rain mn
in
humidity
%
barometer
mb
20201203102540 35 36 0.0 0.0 0.00 0.00 0.00 77 1024.1
20201203102040 35 36 0.0 3.0 0.00 0.00 0.00 77 1024.1
20201203101630 35 36 1.0 3.0 0.00 0.00 0.00 76 1024.0
20201203101041 35 61 0.0 0.0 0.00 0.00 0.00 76 1024.7
20201203100538 35 61 0.0 0.0 0.00 0.00 0.00 77 1024.8
20201203100121 35 61 0.0 0.0 0.00 0.00 0.00 76 1023.9
20201203095537 35 61 0.0 0.0 0.00 0.00 0.00 78 1024.2
20201203095036 35 61 0.0 0.0 0.00 0.00 0.00 79 1024.2
20201203094612 35 61 0.0 0.0 0.00 0.00 0.00 78 1024.3
20201203094046 35 61 0.0 0.0 0.00 0.00 0.00 78 1024.7
20201203093540 35 61 0.0 0.0 0.00 0.00 0.00 78 1024.6
20201203093047 35 61 0.0 0.0 0.00 0.00 0.00 76 1024.7
20201203092605 34 61 0.0 0.0 0.00 0.00 0.00 75 1024.5
20201203092108 34 61 0.0 0.0 0.00 0.00 0.00 76 1024.5
20201203091750 35 61 0.0 0.0 0.00 0.00 0.00 76 1024.5
20201203091036 35 61 0.0 0.0 0.00 0.00 0.00 74 1024.7
20201203090538 35 61 0.0 0.0 0.00 0.00 0.00 74 1025.0
20201203090106 35 61 0.0 0.0 0.00 0.00 0.00 73 1025.0
20201203085535 35 61 0.0 0.0 0.00 0.00 0.00 74 1024.9
20201203085035 34 61 0.0 0.0 0.00 0.00 0.00 75 1024.6
20201203084609 35 61 0.0 0.0 0.00 0.00 0.00 75 1024.6
20201203084037 35 61 0.0 0.0 0.00 0.00 0.00 75 1024.6
20201203083533 35 61 0.0 0.0 0.00 0.00 0.00 74 1024.6
20201203083055 35 61 0.0 0.0 0.00 0.00 0.00 75 1024.8
20201203082555 35 61 0.0 0.0 0.00 0.00 0.00 74 1024.9
20201203082049 35 61 0.0 0.0 0.00 0.00 0.00 73 1024.9
20201203081548 35 61 0.0 0.0 0.00 0.00 0.00 72 1025.0
20201203081038 35 61 0.0 0.0 0.00 0.00 0.00 73 1025.1
20201203080535 35 61 0.0 0.0 0.00 0.00 0.00 73 1025.0
20201203080048 35 61 0.0 0.0 0.00 0.00 0.00 72 1024.9
20201203075535 35 61 0.0 0.0 0.00 0.00 0.00 72 1024.7
20201203075030 35 61 0.0 0.0 0.00 0.00 0.00 72 1024.7
20201203074619 35 61 0.0 0.0 0.00 0.00 0.00 71 1024.7
20201203074039 35 61 0.0 0.0 0.00 0.00 0.00 71 1024.7
20201203073534 35 61 0.0 0.0 0.00 0.00 0.00 72 1024.6
20201203073114 35 61 0.0 0.0 0.00 0.00 0.00 72 1024.5
20201203072534 35 61 0.0 2.0 0.00 0.00 0.00 71 1024.3
20201203072030 35 61 0.0 2.0 0.00 0.00 0.00 72 1024.5
20201203071618 35 61 0.0 0.0 0.00 0.00 0.00 72 1024.7
20201203071035 35 61 0.0 0.0 0.00 0.00 0.00 71 1024.7
20201203070534 35 61 0.0 0.0 0.00 0.00 0.00 71 1024.7
20201203070035 35 61 0.0 0.0 0.00 0.00 0.00 71 1024.7
20201203065537 35 61 0.0 0.0 0.00 0.00 0.00 72 1024.5
20201203065033 35 61 0.0 0.0 0.00 0.00 0.00 72 1024.5
20201203064544 35 61 0.0 0.0 0.00 0.00 0.00 72 1024.5
20201203064056 34 61 0.0 0.0 0.00 0.00 0.00 72 1024.7
20201203063533 34 61 0.0 0.0 0.00 0.00 0.00 73 1024.8
20201203063044 34 61 0.0 0.0 0.00 0.00 0.00 73 1024.8
20201203062526 33 61 0.0 0.0 0.00 0.00 0.00 74 1024.9
20201203062052 33 61 0.0 0.0 0.00 0.00 0.00 73 1025.0
20201203061542 34 61 0.0 0.0 0.00 0.00 0.00 71 1025.1
20201203061034 35 61 0.0 0.0 0.00 0.00 0.00 70 1025.1
20201203060522 35 61 0.0 0.0 0.00 0.00 0.00 71 1025.3
20201203060054 35 61 0.0 0.0 0.00 0.00 0.00 71 1025.6
20201203055532 36 61 0.0 0.0 0.00 0.00 0.00 70 1025.6
20201203055025 36 61 0.0 0.0 0.00 0.00 0.00 68 1025.7
20201203054540 36 61 0.0 0.0 0.00 0.00 0.00 68 1025.6
20201203054034 36 61 0.0 0.0 0.00 0.00 0.00 68 1025.5
20201203053523 36 61 0.0 0.0 0.00 0.00 0.00 69 1025.5
20201203053042 35 61 0.0 0.0 0.00 0.00 0.00 70 1025.3
20201203052528 0 0.0 0.0 0.00 0.00 0.00 1025.3
20201203052026 0 0.0 0.0 0.00 0.00 0.00 1025.3
20201203051530 0 0.0 0.0 0.00 0.00 0.00 1025.6
20201203051034 0 0.0 0.0 0.00 0.00 0.00 1025.6
20201203050519 0 0.0 0.0 0.00 0.00 0.00 1025.7
20201203050040 0 0.0 0.0 0.00 0.00 0.00 1025.5
20201203045519 36 61 0.0 0.0 0.00 0.00 0.00 67 1025.6
20201203045018 36 61 0.0 0.0 0.00 0.00 0.00 67 1025.6
20201203044526 36 61 0.0 0.0 0.00 0.00 0.00 66 1025.6
20201203044033 36 61 0.0 0.0 0.00 0.00 0.00 67 1025.6
20201203043540 36 61 0.0 0.0 0.00 0.00 0.00 66 1025.5
20201203043024 36 61 0.0 0.0 0.00 0.00 0.00 67 1025.7
20201203042519 36 61 0.0 2.0 0.00 0.00 0.00 67 1025.6
20201203042020 36 61 0.0 2.0 0.00 0.00 0.00 67 1025.5
20201203041528 36 61 0.0 0.0 0.00 0.00 0.00 68 1025.4
20201203041021 36 61 0.0 0.0 0.00 0.00 0.00 67 1025.4
20201203040519 37 61 0.0 0.0 0.00 0.00 0.00 66 1025.3
20201203040033 36 61 0.0 0.0 0.00 0.00 0.00 66 1025.3
20201203035514 36 61 0.0 2.0 0.00 0.00 0.00 66 1025.2
20201203035015 36 61 0.0 1.0 0.00 0.00 0.00 66 1025.2
20201203034531 37 61 0.0 0.0 0.00 0.00 0.00 66 1025.5
20201203034025 37 61 0.0 0.0 0.00 0.00 0.00 65 1025.4
20201203033518 37 61 0.0 0.0 0.00 0.00 0.00 65 1025.5
20201203033020 37 61 0.0 0.0 0.00 0.00 0.00 65 1025.5
20201203032516 37 61 0.0 0.0 0.00 0.00 0.00 65 1025.5
20201203032017 37 61 0.0 0.0 0.00 0.00 0.00 65 1025.4
20201203031517 37 61 0.0 0.0 0.00 0.00 0.00 65 1025.4
20201203031016 37 61 0.0 0.0 0.00 0.00 0.00 65 1025.5
20201203030518 37 61 0.0 0.0 0.00 0.00 0.00 65 1025.5
20201203030012 37 54 0.0 4.0 0.00 0.00 0.00 65 1025.4
20201203025514 38 53 1.0 4.0 0.00 0.00 0.00 64 1025.3
20201203025013 37 68 0.0 0.0 0.00 0.00 0.00 64 1025.3
20201203024517 38 68 0.0 1.0 0.00 0.00 0.00 63 1025.5
20201203024015 38 68 0.0 2.0 0.00 0.00 0.00 62 1025.6
20201203023509 38 68 0.0 2.0 0.00 0.00 0.00 62 1025.5
20201203023021 38 68 0.0 2.0 0.00 0.00 0.00 62 1025.5
20201203022513 38 67 0.0 0.0 0.00 0.00 0.00 62 1025.6
20201203022020 38 67 0.0 0.0 0.00 0.00 0.00 62 1025.7
20201203021510 39 67 0.0 0.0 0.00 0.00 0.00 61 1025.7
20201203021010 39 67 0.0 0.0 0.00 0.00 0.00 60 1025.8
20201203020515 39 67 0.0 2.0 0.00 0.00 0.00 59 1025.8
20201203020004 39 67 0.0 2.0 0.00 0.00 0.00 59 1025.7
20201203015520 39 67 0.0 0.0 0.00 0.00 0.00 59 1025.7
20201203015017 39 67 0.0 0.0 0.00 0.00 0.00 59 1025.7
20201203014518 39 67 0.0 0.0 0.00 0.00 0.00 58 1025.7
20201203014021 39 67 0.0 0.0 0.00 0.00 0.00 57 1025.8
20201203013510 39 67 0.0 0.0 0.00 0.00 0.00 57 1025.9
20201203013001 39 67 0.0 0.0 0.00 0.00 0.00 58 1025.9
20201203012509 39 67 0.0 0.0 0.00 0.00 0.00 58 1025.9
20201203012100 39 67 0.0 0.0 0.00 0.00 0.00 58 1025.9
20201203011657 39 67 0.0 0.0 0.00 0.00 0.00 58 1025.9
20201203011101 39 67 0.0 0.0 0.00 0.00 0.00 59 1026.0
20201203010603 39 67 0.0 0.0 0.00 0.00 0.00 59 1025.9
20201203010237 39 67 0.0 0.0 0.00 0.00 0.00 59 1026.1
20201203005635 39 67 0.0 0.0 0.00 0.00 0.00 59 1026.1
20201203005105 39 67 0.0 0.0 0.00 0.00 0.00 58 1025.9
20201203004705 39 67 0.0 0.0 0.00 0.00 0.00 58 1025.9
20201203004111 39 67 0.0 0.0 0.00 0.00 0.00 57 1026.0
20201203003601 39 67 0.0 0.0 0.00 0.00 0.00 57 1026.2
20201203003153 40 67 0.0 0.0 0.00 0.00 0.00 56 1026.3
20201203002559 41 67 0.0 0.0 0.00 0.00 0.00 54 1026.1
20201203002100 41 67 0.0 0.0 0.00 0.00 0.00 54 1026.2
20201203001629 41 67 0.0 0.0 0.00 0.00 0.00 55 1026.0
20201203001100 41 67 0.0 0.0 0.00 0.00 0.00 54 1025.8
20201203000709 42 67 0.0 0.0 0.00 0.00 0.00 53 1025.9
20201203000317 42 67 0.0 0.0 0.00 0.00 0.00 52 1026.0
20201202235559 42 67 0.0 0.0 0.00 0.00 0.00 52 1026.0
20201202235123 42 67 0.0 0.0 0.00 0.00 0.00 52 1025.9
20201202234655 42 67 0.0 0.0 0.00 0.00 0.00 52 1026.0
20201202234109 42 67 0.0 0.0 0.00 0.00 0.00 52 1025.8
20201202233557 42 67 0.0 0.0 0.00 0.00 0.00 52 1025.8
20201202233213 42 67 0.0 0.0 0.00 0.00 0.00 52 1025.8
20201202232557 42 67 0.0 0.0 0.00 0.00 0.00 52 1025.7
20201202232058 42 67 0.0 0.0 0.00 0.00 0.00 53 1025.7
20201202231758 42 67 0.0 0.0 0.00 0.00 0.00 54 1025.8
20201202231106 42 67 0.0 0.0 0.00 0.00 0.00 54 1025.6
20201202230615 43 67 0.0 0.0 0.00 0.00 0.00 53 1025.7
20201202230127 43 67 0.0 0.0 0.00 0.00 0.00 53 1025.7
20201202225557 43 67 0.0 0.0 0.00 0.00 0.00 52 1025.7
20201202225055 43 67 0.0 0.0 0.00 0.00 0.00 52 1025.8
20201202224745 44 67 0.0 0.0 0.00 0.00 0.00 51 1025.9
20201202224057 44 67 0.0 0.0 0.00 0.00 0.00 51 1025.9
20201202223607 44 67 0.0 0.0 0.00 0.00 0.00 50 1026.0
20201202223134 44 67 0.0 0.0 0.00 0.00 0.00 50 1025.9
20201202222555 45 67 0.0 0.0 0.00 0.00 0.00 50 1025.8
20201202222059 45 67 0.0 0.0 0.00 0.00 0.00 49 1025.8
20201202221628 45 67 0.0 0.0 0.00 0.00 0.00 49 1025.7
20201202221107 46 67 0.0 0.0 0.00 0.00 0.00 48 1025.7
20201202220604 46 67 0.0 3.0 0.00 0.00 0.00 48 1025.6
20201202220208 47 66 0.0 4.0 0.00 0.00 0.00 47 1025.6
20201202215609 47 83 0.0 0.0 0.00 0.00 0.00 47 1025.8
20201202215109 47 83 0.0 0.0 0.00 0.00 0.00 46 1026.0
20201202214642 48 83 0.0 0.0 0.00 0.00 0.00 46 1026.1
20201202214057 48 83 0.0 0.0 0.00 0.00 0.00 46 1025.9
20201202213559 48 87 0.0 2.0 0.00 0.00 0.00 45 1026.0
20201202213102 48 116 0.0 2.0 0.00 0.00 0.00 45 1026.1
20201202212552 48 99 0.0 3.0 0.00 0.00 0.00 45 1026.1
20201202212106 47 90 0.0 3.0 0.00 0.00 0.00 44 1026.0
20201202211747 48 119 0.0 3.0 0.00 0.00 0.00 45 1026.0
20201202211055 48 142 0.0 1.0 0.00 0.00 0.00 44 1026.0
20201202210558 49 130 0.0 1.0 0.00 0.00 0.00 44 1026.0
20201202210249 49 142 0.0 2.0 0.00 0.00 0.00 43 1025.9
20201202205556 49 70 0.0 3.0 0.00 0.00 0.00 44 1025.7
20201202205057 48 79 0.0 5.0 0.00 0.00 0.00 45 1025.6
20201202204653 48 90 0.0 7.0 0.00 0.00 0.00 44 1025.5
20201202204051 49 90 0.0 5.0 0.00 0.00 0.00 44 1025.5
20201202203613 48 100 1.0 5.0 0.00 0.00 0.00 44 1025.5
20201202203126 49 84 0.0 5.0 0.00 0.00 0.00 43 1025.6
20201202202554 49 94 0.0 5.0 0.00 0.00 0.00 44 1025.8
20201202202058 49 71 1.0 5.0 0.00 0.00 0.00 45 1025.7
20201202201711 49 68 0.0 8.0 0.00 0.00 0.00 45 1025.7
20201202201054 49 92 1.0 7.0 0.00 0.00 0.00 43 1025.8
20201202200552 49 70 1.0 5.0 0.00 0.00 0.00 45 1025.9
20201202200121 48 82 2.0 5.0 0.00 0.00 0.00 46 1026.0
20201202195612 48 75 0.0 7.0 0.00 0.00 0.00 45 1026.1
20201202195054 49 82 0.0 5.0 0.00 0.00 0.00 44 1026.1
20201202194636 50 48 0.0 4.0 0.00 0.00 0.00 45 1026.0
20201202194052 48 123 0.0 4.0 0.00 0.00 0.00 46 1026.1
20201202193545 48 103 1.0 4.0 0.00 0.00 0.00 47 1026.2
20201202193114 48 103 0.0 4.0 0.00 0.00 0.00 47 1026.3
20201202192544 48 115 1.0 4.0 0.00 0.00 0.00 47 1026.4
20201202192103 48 81 0.0 3.0 0.00 0.00 0.00 48 1026.6
20201202191642 48 86 0.0 3.0 0.00 0.00 0.00 47 1026.6
20201202191046 48 91 0.0 3.0 0.00 0.00 0.00 47 1026.8
20201202190543 48 151 0.0 5.0 0.00 0.00 0.00 47 1026.9
20201202190143 48 178 0.0 4.0 0.00 0.00 0.00 47 1026.9
20201202185543 48 128 0.0 3.0 0.00 0.00 0.00 47 1027.1
20201202185042 48 156 0.0 6.0 0.00 0.00 0.00 48 1027.2
20201202184549 47 150 0.0 6.0 0.00 0.00 0.00 50 1027.1
20201202184040 47 62 2.0 6.0 0.00 0.00 0.00 50 1027.1
20201202183542 47 73 1.0 6.0 0.00 0.00 0.00 50 1027.1
20201202183056 47 77 0.0 6.0 0.00 0.00 0.00 51 1027.1
20201202182541 47 80 1.0 4.0 0.00 0.00 0.00 51 1027.1
20201202182038 47 132 0.0 5.0 0.00 0.00 0.00 51 1027.2
20201202181708 46 93 0.0 5.0 0.00 0.00 0.00 51 1027.3
20201202181038 47 108 0.0 7.0 0.00 0.00 0.00 50 1027.4
20201202180538 46 74 2.0 7.0 0.00 0.00 0.00 53 1027.4
20201202180209 46 78 0.0 4.0 0.00 0.00 0.00 53 1027.4
20201202175542 46 109 0.0 5.0 0.00 0.00 0.00 51 1027.5
20201202175035 46 76 0.0 6.0 0.00 0.00 0.00 53 1027.6
20201202174652 46 82 1.0 6.0 0.00 0.00 0.00 53 1027.7
20201202174040 45 57 1.0 6.0 0.00 0.00 0.00 55 1027.8
20201202173534 46 110 0.0 5.0 0.00 0.00 0.00 55 1027.9
20201202173128 45 132 0.0 4.0 0.00 0.00 0.00 54 1028.1
20201202172535 46 73 0.0 5.0 0.00 0.00 0.00 55 1028.1
20201202172034 45 92 0.0 5.0 0.00 0.00 0.00 55 1028.2
20201202171620 45 82 0.0 5.0 0.00 0.00 0.00 57 1028.3
20201202171029 45 138 0.0 6.0 0.00 0.00 0.00 57 1028.3
20201202170531 44 69 0.0 7.0 0.00 0.00 0.00 56 1028.5
20201202170035 44 75 1.0 7.0 0.00 0.00 0.00 57 1028.6
20201202165528 44 92 0.0 4.0 0.00 0.00 0.00 57 1028.7
20201202165026 44 119 1.0 4.0 0.00 0.00 0.00 57 1028.8
20201202164534 44 117 0.0 5.0 0.00 0.00 0.00 59 1028.8
20201202164028 43 105 1.0 5.0 0.00 0.00 0.00 59 1028.9
20201202163543 43 81 0.0 4.0 0.00 0.00 0.00 60 1029.0
20201202163210 43 104 0.0 3.0 0.00 0.00 0.00 59 1029.1
20201202162531 42 169 0.0 3.0 0.00 0.00 0.00 61 1029.2
20201202162025 42 123 0.0 5.0 0.00 0.00 0.00 62 1029.2
20201202161524 41 115 0.0 5.0 0.00 0.00 0.00 61 1029.3
20201202161021 41 103 1.0 6.0 0.00 0.00 0.00 62 1029.4
20201202160515 41 114 0.0 4.0 0.00 0.00 0.00 63 1029.4
20201202160024 41 134 1.0 4.0 0.00 0.00 0.00 63 1029.5
20201202155523 40 74 0.0 5.0 0.00 0.00 0.00 62 1029.4
20201202155025 40 108 1.0 5.0 0.00 0.00 0.00 63 1029.3
20201202154516 40 113 0.0 2.0 0.00 0.00 0.00 65 1029.4
20201202154019 39 132 0.0 3.0 0.00 0.00 0.00 65 1029.5
20201202153513 39 128 1.0 4.0 0.00 0.00 0.00 64 1029.5
20201202153014 39 130 0.0 4.0 0.00 0.00 0.00 66 1029.5
20201202152501 38 147 0.0 0.0 0.00 0.00 0.00 68 1029.5
20201202152106 38 147 0.0 0.0 0.00 0.00 0.00 67 1029.5
20201202151647 37 145 0.0 0.0 0.00 0.00 0.00 68 1029.5
20201202151058 36 150 0.0 0.0 0.00 0.00 0.00 69 1029.5
20201202150555 36 148 0.0 0.0 0.00 0.00 0.00 68 1029.5
20201202150122 36 147 0.0 0.0 0.00 0.00 0.00 70 1029.6
20201202145559 35 146 0.0 0.0 0.00 0.00 0.00 68 1029.5
20201202145053 34 144 0.0 0.0 0.00 0.00 0.00 67 1029.4
20201202144744 35 138 0.0 0.0 0.00 0.00 0.00 68 1029.4
20201202144051 34 140 0.0 0.0 0.00 0.00 0.00 67 1029.2
20201202143605 34 140 0.0 0.0 0.00 0.00 0.00 69 1029.2
20201202143109 33 132 0.0 0.0 0.00 0.00 0.00 68 1029.0
20201202142548 33 229 0.0 0.0 0.00 0.00 0.00 70 1029.0
20201202142045 33 250 0.0 0.0 0.00 0.00 0.00 71 1028.9
20201202141615 32 250 0.0 0.0 0.00 0.00 0.00 73 1029.0
20201202141058 32 255 0.0 0.0 0.00 0.00 0.00 74 1028.9
20201202140542 31 255 0.0 0.0 0.00 0.00 0.00 76 1029.0
20201202140150 30 259 0.0 0.0 0.00 0.00 0.00 78 1028.8
20201202135542 29 259 0.0 0.0 0.00 0.00 0.00 79 1028.7
20201202135038 28 259 0.0 0.0 0.00 0.00 0.00 81 1028.6
20201202134624 28 259 0.0 0.0 0.00 0.00 0.00 82 1028.6
20201202134035 28 259 0.0 0.0 0.00 0.00 0.00 82 1028.5
20201202133534 27 259 0.0 0.0 0.00 0.00 0.00 82 1028.5
20201202133036 27 259 0.0 0.0 0.00 0.00 0.00 82 1028.4
20201202132534 27 259 0.0 0.0 0.00 0.00 0.00 81 1028.2
20201202132034 27 259 0.0 0.0 0.00 0.00 0.00 80 1028.2
20201202131610 27 259 0.0 0.0 0.00 0.00 0.00 80 1028.1
20201202131050 27 259 0.0 0.0 0.00 0.00 0.00 79 1028.1
20201202130528 27 259 0.0 0.0 0.00 0.00 0.00 78 1028.0
20201202130114 27 259 0.0 0.0 0.00 0.00 0.00 78 1027.9
20201202125529 27 259 0.0 0.0 0.00 0.00 0.00 78 1027.9
20201202125034 26 259 0.0 0.0 0.00 0.00 0.00 79 1027.8
20201202124525 26 259 0.0 0.0 0.00 0.00 0.00 81 1027.8
20201202124028 26 259 0.0 0.0 0.00 0.00 0.00 82 1027.7
20201202123522 26 259 0.0 0.0 0.00 0.00 0.00 83 1027.7
20201202123030 25 259 0.0 0.0 0.00 0.00 0.00 84 1027.6
20201202122523 25 259 0.0 0.0 0.00 0.00 0.00 84 1027.5
20201202122038 25 259 0.0 0.0 0.00 0.00 0.00 85 1027.5
20201202121606 25 259 0.0 0.0 0.00 0.00 0.00 84 1027.4
20201202121031 25 259 0.0 0.0 0.00 0.00 0.00 84 1027.4
20201202120521 25 259 0.0 0.0 0.00 0.00 0.00 85 1027.4
20201202120107 24 259 0.0 0.0 0.00 0.00 0.00 84 1027.4
20201202115530 25 259 0.0 0.0 0.00 0.00 0.00 84 1027.3
20201202115035 25 259 0.0 0.0 0.00 0.00 0.00 84 1027.3
20201202114617 25 259 0.0 0.0 0.00 0.00 0.00 83 1027.2
20201202114025 25 259 0.0 0.0 0.00 0.00 0.00 84 1027.1
20201202113516 25 260 0.0 0.0 0.00 0.00 0.00 84 1026.9
20201202113032 0 0.0 0.0 0.00 0.00 0.00 1026.8
20201202112523 0 0.0 0.0 0.00 0.00 0.00 1026.8
20201202112022 0 0.0 0.0 0.00 0.00 0.00 1026.8
20201202111544 0 0.0 0.0 0.00 0.00 0.00 1026.8
20201202111036 0 0.0 0.0 0.00 0.00 0.00 1026.6
20201202110522 0 0.0 0.0 0.00 0.00 0.00 1026.6
20201202110025 0 0.0 0.0 0.00 0.00 0.00 1026.6
20201202105512 0 0.0 0.0 0.00 0.00 0.00 1026.5
20201202105009 0 0.0 0.0 0.00 0.00 0.00 1026.5
20201202104508 0 0.0 0.0 0.00 0.00 0.00 1026.6
20201202104101 0 0.0 0.0 0.00 0.00 0.00 1026.5
20201202103600 0 0.0 0.0 0.00 0.00 0.00 1026.5
20201202103123 0 0.0 0.0 0.00 0.00 0.00 1026.6